Location: Unspecified
(17.6330°N, 0.0000°E)
Time: 17:33:04
(UTC+00:00)

Transit 4A - Visible Passes

Search period start: 17 June 2019 00:00
Search period end: 27 June 2019 00:00
Orbit: 862 x 983 km, 66.8° (Epoch: 16 June)

Date Brightness Start Highest point End Pass type
(mag) Time Alt. Az. Time Alt. Az. Time Alt. Az.
17 Jun 8.0 19:09:36 10° NNW 19:15:53 87° WSW 19:21:57 10° SSE visible
18 Jun 8.7 19:19:06 10° NNW 19:25:08 53° WSW 19:31:00 10° S visible
19 Jun 9.6 19:28:58 10° NW 19:34:21 31° WSW 19:39:36 10° SSW visible
20 Jun 10.3 19:39:26 10° WNW 19:43:31 18° WSW 19:47:32 10° SSW visible
